Regional Weather Roundup
Issued by NWS Grand Forks, ND

Home | Current Version | Previous Version | Text Only | Print | Product List | Glossary Off
Versions: 1 2 3 4 5 6 7 8 9 10 11 12 13 14 15 16 17 18 19 20 21 22 23 24 25 26 27 28 29 30 31 32 33 34 35 36 37 38 39 40 41 42 43 44 45 46 47 48 49 50

000
ASUS43 KFGF 190531
RWRFGF
PRAIRIE TO PINES  WEATHER ROUNDUP
NATIONAL WEATHER SERVICE EASTERN NORTH DAKOTA/GRAND FORKS ND
1200 AM CDT THU OCT 19 2017

 **SATELLITE DATA USED TO AUGMENT SKY COVER AT AUTOMATED STATIONS**
 *****  WEATHER ACROSS EASTERN NORTH DAKOTA  *****

CITY           SKY/WX    TMP DP  RH WIND       PRES   REMARKS
GRAND FORKS    FAIR      50  25  37 SW10      29.88S
GRAND FRKS AFB FAIR      47  24  39 W12       29.88S
DEVILS LAKE    FAIR      42  30  62 SW8       29.90S
FARGO          FAIR      43  26  51 SW5       29.95R
WAHPETON ARPT  NOT AVBL
$$

 ***** WEATHER ACROSS CENTRAL AND WESTERN NORTH DAKOTA  *****

CITY           SKY/WX    TMP DP  RH WIND       PRES   REMARKS
BISMARCK       FAIR      40  26  57 CALM      29.94S
MINOT          FAIR      41  25  53 SW8       29.87S
JAMESTOWN      FAIR      42  26  53 SW6       29.94S
MINOT AFB      FAIR      33  22  63 S5        29.85F
GARRISON         N/A     39  29  67 S3        29.89F
WILLISTON      FAIR      41  27  57 CALM      29.83F
DICKINSON      FAIR      41  27  57 S10       29.87F
HETTINGER      FAIR      44  23  43 SE3       29.92F
$$

 *****  OTHER AIRPORT OBSERVATIONS IN OUR AREA  *****

CITY           SKY/WX    TMP DP  RH WIND       PRES   REMARKS
WALHALLA       FAIR     N/A N/A N/A W12G18    29.83R
GRAFTON AIRPOR FAIR      43  27  52 W10       29.88S
VALLEY CITY AR FAIR      39  27  60 W9        29.96S
CANDO          FAIR      32  23  69 SW7       29.90S
CAVALIER APRT  FAIR      46  19  34 W13       29.84S
GWINNER          N/A     39  30  70 CALM      29.98S
SHEYENNE NWR     N/A     37  28  69 W6        29.95S
ROLLA          FLURRIES  36  16  44 SW9       29.86S
 ***** THE ABOVE OBSERVATIONS ARE NON NWS ARE NOT QUALITY
       CONTROLLED AND MAY MIS-REPORT RAIN FOR SNOW...
$$

  *****  WEATHER ACROSS NORTHERN MINNESOTA  *****

CITY           SKY/WX    TMP DP  RH WIND       PRES   REMARKS
FLAG ISLAND    FAIR      50  16  25 W23G29    29.72R
WARROAD        FAIR      46  21  36 W14G23    29.79R
ROSEAU         FAIR      48  19  32 W14G20    29.80R
HALLOCK        FAIR      43  16  33 W9        29.83S
THF RVR FALLS  FAIR      45  23  42 W13       29.88R
BAUDETTE       FAIR      50  16  25 W16G31    29.78R
WASKISH        FAIR      48  32  53 W18G24    29.83S
CROOKSTON      FAIR      45  23  42 W9        29.90R
STEPHEN NDAWN    N/A     43  23  45 SW7         N/A
GREENBUSH NDAW   N/A     45  21  39 W13         N/A
$$
  *****  WEATHER ACROSS CENTRAL AND WEST MINNESOTA  *****

CITY           SKY/WX    TMP DP  RH WIND       PRES   REMARKS
FOSSTON        FAIR      45  21  39 SW9       29.91R
BEMIDJI        FAIR      46  22  38 W14       29.88S
PARK RAPIDS    FAIR      42  27  55 W8        29.93R
ELBOW LAKE     FAIR      38  32  78 CALM      29.99S
WADENA         FAIR      43  28  56 SW5       29.96R
DETROIT LAKES  FAIR      48  25  40 W9        29.95S
MOORHEAD       FAIR      43  27  52 SW6       29.96S
FERGUS FALLS   FAIR      37  30  75 SW6       29.99F
MORRIS MN      FAIR      45  34  65 W6        30.00R
STAPLES        FAIR      45  25  45 SW8       29.96R
$$
  *****  WEATHER ELSEWHERE ACROSS MINNESOTA  *****

CITY           SKY/WX    TMP DP  RH WIND       PRES   REMARKS
DULUTH         FAIR      46  20  35 W16       29.87R
INTRNTL FALLS  FAIR      48  15  26 W14G20    29.76R
ELY            FAIR      46  16  29 W13G20    29.79S
CLOQUET        FAIR      48  12  23 W9        29.90R
WHEATON        FAIR      45  30  57 SW8       30.00F
BRAINERD       FAIR      47  23  38 W10       29.95R
HIBBING        FAIR      47  18  31 W6        29.85R
ALEXANDRIA     FAIR      43  31  62 SW7       30.00S
SAINT CLOUD    FAIR      45  31  58 SW8       30.00R
MINNEAPOLIS    FAIR      54  29  38 W8        30.02R
$$

  *****  WEATHER ACROSS SOUTH DAKOTA  *****

CITY           SKY/WX    TMP DP  RH WIND       PRES   REMARKS
SIOUX FALLS    FAIR      42  37  82 NE3       30.06S
BROOKINGS      FAIR      44  30  57 E5        30.06S
WATERTOWN      FAIR      40  33  76 S5        30.03S
HURON          FAIR      40  34  79 CALM      30.04S
SISSETON         N/A     49  30  48 SW9       29.98F
ABERDEEN       FAIR      36  29  75 S5        30.00F
MITCHELL       FAIR      42  33  70 SE3       30.06R
PIERRE         FAIR      44  32  62 S9        29.98F
MOBRIDGE       FAIR      43  37  79 SE7       29.94F
RAPID CITY     FAIR      47  29  49 SE7       29.96F
$$

  *****  SOME WEATHER IN NEARBY STATES *****

CITY           SKY/WX    TMP DP  RH WIND       PRES   REMARKS
GLASGOW MT     FAIR      47  33  58 SE15      29.74F
GREAT FALLS MT FAIR      57  30  35 SW20      29.71F
CHEYENNE WY    FAIR      44  20  38 SW6       30.18S
SCOTTSBLUFF NE FAIR      47  31  53 E10       30.09R
OMAHA NE       FAIR      49  45  86 N7        30.04S
DES MOINES IA  CLOUDY    57  48  72 W3        30.03S
DAVENPORT IA   FAIR      55  44  66 S7        30.05F
CHICAGO IL     FAIR      61  44  53 SW14G20   30.03F
EAU CLAIRE WI  FAIR      51  25  36 W9        29.98R
LA CROSSE WI   FAIR      58  29  33 NW14      30.01R
$$

  *****  SOME NATIONAL WEATHER *****

CITY           SKY/WX    TMP DP  RH WIND       PRES   REMARKS
LA GUARDIA NY  FAIR      62  47  57 SW6       30.27S
RALEIGH NC     FAIR      45  45 100 CALM      30.32F
ATLANTA GA     FAIR      52  44  74 E6        30.28F
NEW ORLEANS LA FAIR      65  58  78 E3        30.18F
OKLAHOMA CITY  MOCLDY    57  46  66 S9        30.08S
ALBUQUERQUE NM MOCLDY    55  24  30 E8        30.17R
SALT LAKE CITY FAIR      52  33  48 SE7       30.07F
LOS ANGELES CA FAIR      69  55  60 SW7       29.91R
BOISE ID       FAIR      63  27  25 SE15      29.89F
SEATTLE WA     RAIN      56  54  93 SW10      29.63S FOG
$$

*** WEATHER ACROSS MANITOBA...SASKATCHEWAN AND ONTARIO ***
                ***ONTARIO***

CITY           SKY/WX    TMP DP  RH WIND       PRES   REMARKS
GERALDTON      PTCLDY    48  18  29 SW15      29.52S
THUNDER BAY    CLEAR     52  18  25 SW12G18   29.67R
SIOUX LOOKOUT  CLEAR     48  18  29 W17G30    29.54R
TORONTO        CLEAR     54  45  71 SW5       30.07F
BIG TROUT LK   LGT RAIN  39  36  87 W20G31    29.14
PICKLE LAKE    NOT AVBL
DRYDEN         CLEAR     48  16  27 W22G38    29.60R
KENORA         CLEAR     46  14  27 W18G28    29.67R
$$
                *** MANITOBA***

CITY           SKY/WX    TMP DP  RH WIND       PRES   REMARKS
BRANDON        CLEAR     34  16  47 W8        29.80R
DAUPHIN        CLEAR     43  14  31 W14G21    29.72R
ISLAND LAKE    LGT RAIN  37  32  81 W29G39    29.32R
PILOT MOUND      N/A     34  14  44 SW7         N/A
THE PAS        CLEAR     36  25  64 NW16G24   29.62R
THOMPSON       FLURRIES  32  30  93 NW12G18   29.43R WCI  23
WINNIPEG       CLEAR     45  14  29 W15       29.76R
LYNN LAKE      FLURRIES  28  27  93 N14G22    29.57R WCI  17
CHURCHILL      FLURRIES  34  32  93 NE29G46   29.37R WCI  20
GILLAM         FLURRIES  34  32  93 NW21G28   29.21R WCI  22
$$
                ***SASKATCHEWAN***

CITY           SKY/WX    TMP DP  RH WIND       PRES   REMARKS
ESTEVAN        PTCLDY    32  21  64 SE5       29.81F
KINDERSLEY     CLOUDY    43  19  39 SE16G24   29.51F
LLOYDMINSTER   MOCLDY    37  19  48 SE15G22   29.48F
PRINCE ALBERT  CLOUDY    27  19  74 NE2       29.67F
REGINA         MOCLDY    34  16  47 SE9       29.73
YORKTON        CLEAR     36  16  44 SW7       29.73F
N. BATTLEFORD  PTCLDY    36  16  44 SE14      29.58F
LA RONGE       MOCLDY    30  28  93 VRB2      29.66S
SASKATOON      MOCLDY    36  18  48 SE7       29.65F
SWIFT CURRENT  MOCLDY    45  23  42 S16       29.59F
$$
NOTE: THESE ARE AUTOMATED STATIONS WITH LIMITED QUALITY CONTROL
      "FAIR" INDICATES FEW OR NO CLOUDS BELOW 12,000 FEET WITH NO
      SIGNIFICANT WEATHER AND/OR OBSTRUCTIONS TO VISIBILITY.
      SKY/WX - SKY CONDITION AND SIGNIFICANT WEATHER.
      TMP - AIR TEMPERATURE.    DP   - DEWPOINT TEMPERATURE.
      RH  - RELATIVE HUMIDITY.  PRES - PRESSURE.
      HX  - HEAT INDEX.         WCI  - WIND CHILL INDEX.
$




USA.gov is the U.S. government's official web portal to all federal, state and local government web resources and services.